Time,TemperatureF,DewpointF,PressureIn,WindDirection,WindDirectionDegrees,WindSpeedMPH,WindSpeedGustMPH,Humidity,HourlyPrecipIn,Conditions,Clouds,dailyrainin,SoftwareType,DateUTC
2013-02-11 00:03:00,38.2,18.2,30.38,SSE,157,1.0,5.0,44,0.00,,,-99.99,WeatherLink 5.7,2013-02-11 05:03:00,
2013-02-11 00:13:00,39.1,19.0,30.38,SSE,157,1.0,4.0,44,0.00,,,-99.99,WeatherLink 5.7,2013-02-11 05:13:00,
2013-02-11 00:23:00,37.5,18.6,30.38,SSE,157,1.0,5.0,46,0.00,,,-99.99,WeatherLink 5.7,2013-02-11 05:23:00,
2013-02-11 00:33:00,37.2,17.8,30.37,SSE,157,2.0,5.0,45,0.00,,,-99.99,WeatherLink 5.7,2013-02-11 05:33:00,
2013-02-11 00:43:00,38.4,17.8,30.36,SSE,157,2.0,5.0,43,0.00,,,-99.99,WeatherLink 5.7,2013-02-11 05:43:00,
2013-02-11 00:53:00,37.9,17.9,30.36,SSE,157,1.0,5.0,44,0.00,,,-99.99,WeatherLink 5.7,2013-02-11 05:53:00,
2013-02-11 01:03:00,38.5,17.4,30.35,SSE,157,1.0,4.0,42,0.00,,,-99.99,WeatherLink 5.7,2013-02-11 06:03:00,
2013-02-11 01:13:00,39.4,17.6,30.34,SSE,157,2.0,5.0,41,0.00,,,-99.99,WeatherLink 5.7,2013-02-11 06:13:00,
2013-02-11 01:23:00,38.3,17.7,30.34,SSE,157,1.0,5.0,43,0.00,,,-99.99,WeatherLink 5.7,2013-02-11 06:23:00,
2013-02-11 01:33:00,37.7,18.2,30.34,SSE,157,0.0,3.0,45,0.00,,,-99.99,WeatherLink 5.7,2013-02-11 06:33:00,
2013-02-11 01:43:00,37.3,17.9,30.35,SSE,157,1.0,4.0,45,0.00,,,-99.99,WeatherLink 5.7,2013-02-11 06:43:00,
2013-02-11 01:53:00,36.5,17.7,30.34,SSE,157,2.0,4.0,46,0.00,,,-99.99,WeatherLink 5.7,2013-02-11 06:53:00,
2013-02-11 02:03:00,36.1,18.3,30.33,SSE,157,0.0,2.0,48,0.00,,,-99.99,WeatherLink 5.7,2013-02-11 07:03:00,
2013-02-11 02:13:00,35.6,18.3,30.32,SSE,157,1.0,3.0,49,0.00,,,-99.99,WeatherLink 5.7,2013-02-11 07:13:00,
2013-02-11 02:23:00,34.1,17.8,30.31,SSE,157,0.0,2.0,51,0.00,,,-99.99,WeatherLink 5.7,2013-02-11 07:23:00,
2013-02-11 02:33:00,32.3,17.9,30.31,SSE,157,0.0,2.0,55,0.00,,,-99.99,WeatherLink 5.7,2013-02-11 07:33:00,
2013-02-11 02:43:00,32.8,18.4,30.31,SSE,157,0.0,2.0,55,0.00,,,-99.99,WeatherLink 5.7,2013-02-11 07:43:00,
2013-02-11 02:53:00,35.1,19.2,30.31,SSE,157,1.0,3.0,52,0.00,,,-99.99,WeatherLink 5.7,2013-02-11 07:53:00,
2013-02-11 03:03:00,34.8,19.4,30.30,SSE,157,0.0,3.0,53,0.00,,,-99.99,WeatherLink 5.7,2013-02-11 08:03:00,
2013-02-11 03:13:00,33.6,19.6,30.28,SSE,157,0.0,2.0,56,0.00,,,-99.99,WeatherLink 5.7,2013-02-11 08:13:00,
2013-02-11 03:23:00,32.7,19.1,30.28,SSE,157,0.0,1.0,57,0.00,,,-99.99,WeatherLink 5.7,2013-02-11 08:23:00,
2013-02-11 03:33:00,32.4,20.0,30.29,SSE,157,1.0,3.0,60,0.00,,,-99.99,WeatherLink 5.7,2013-02-11 08:33:00,
2013-02-11 03:44:00,33.7,20.5,30.28,SSE,157,1.0,3.0,58,0.00,,,-99.99,WeatherLink 5.7,2013-02-11 08:44:00,
2013-02-11 03:53:00,32.4,19.7,30.26,SSE,157,1.0,3.0,59,0.00,,,-99.99,WeatherLink 5.7,2013-02-11 08:53:00,
2013-02-11 04:03:00,31.9,20.0,30.25,SSE,157,0.0,2.0,61,0.00,,,-99.99,WeatherLink 5.7,2013-02-11 09:03:00,
2013-02-11 04:13:00,32.0,20.1,30.25,North,-999,0.0,1.0,61,0.00,,,-99.99,WeatherLink 5.7,2013-02-11 09:13:00,
2013-02-11 04:23:00,31.8,20.3,30.25,SSE,157,0.0,2.0,62,0.00,,,-99.99,WeatherLink 5.7,2013-02-11 09:23:00,
2013-02-11 04:33:00,31.7,20.5,30.25,SSE,157,0.0,2.0,63,0.00,,,-99.99,WeatherLink 5.7,2013-02-11 09:33:00,
2013-02-11 04:43:00,32.0,21.2,30.24,SSE,157,1.0,2.0,64,0.00,,,-99.99,WeatherLink 5.7,2013-02-11 09:43:00,
2013-02-11 04:53:00,32.3,22.2,30.23,SSE,157,1.0,3.0,66,0.00,,,-99.99,WeatherLink 5.7,2013-02-11 09:53:00,
2013-02-11 05:03:00,32.9,22.4,30.22,SSE,157,0.0,2.0,65,0.00,,,-99.99,WeatherLink 5.7,2013-02-11 10:03:00,
2013-02-11 05:13:00,33.6,23.1,30.21,SSE,157,0.0,3.0,65,0.00,,,-99.99,WeatherLink 5.7,2013-02-11 10:13:00,
2013-02-11 05:23:00,33.8,23.3,30.21,SSE,157,0.0,1.0,65,0.00,,,-99.99,WeatherLink 5.7,2013-02-11 10:23:00,
2013-02-11 05:33:00,33.5,23.7,30.20,SSE,157,1.0,3.0,67,0.00,,,-99.99,WeatherLink 5.7,2013-02-11 10:33:00,
2013-02-11 05:43:00,33.3,24.2,30.20,SSE,157,1.0,3.0,69,0.00,,,-99.99,WeatherLink 5.7,2013-02-11 10:43:00,
2013-02-11 05:53:00,33.2,25.1,30.20,SSE,157,1.0,3.0,72,0.00,,,-99.99,WeatherLink 5.7,2013-02-11 10:53:00,
2013-02-11 06:03:00,33.5,26.1,30.19,SSE,157,0.0,2.0,74,0.00,,,-99.99,WeatherLink 5.7,2013-02-11 11:03:00,
2013-02-11 06:13:00,33.6,26.5,30.19,SSE,157,1.0,3.0,75,0.00,,,-99.99,WeatherLink 5.7,2013-02-11 11:13:00,
2013-02-11 06:23:00,33.3,26.9,30.18,SSE,157,0.0,2.0,77,0.00,,,-99.99,WeatherLink 5.7,2013-02-11 11:23:00,
2013-02-11 06:33:00,33.6,27.8,30.18,SSE,157,0.0,2.0,79,0.00,,,-99.99,WeatherLink 5.7,2013-02-11 11:33:00,
2013-02-11 06:43:00,33.6,28.4,30.17,SSE,157,0.0,3.0,81,0.00,,,-99.99,WeatherLink 5.7,2013-02-11 11:43:00,
2013-02-11 06:53:00,33.8,29.2,30.16,SSE,157,0.0,2.0,83,0.00,,,-99.99,WeatherLink 5.7,2013-02-11 11:53:00,
2013-02-11 07:03:00,34.8,31.0,30.14,SSE,157,2.0,5.0,86,0.00,,,-99.99,WeatherLink 5.7,2013-02-11 12:03:00,
2013-02-11 07:13:00,36.3,32.5,30.13,SSE,157,2.0,4.0,86,0.00,,,-99.99,WeatherLink 5.7,2013-02-11 12:13:00,
2013-02-11 07:23:00,36.6,32.5,30.12,SSE,157,0.0,2.0,85,0.00,,,-99.99,WeatherLink 5.7,2013-02-11 12:23:00,
2013-02-11 07:33:00,36.2,32.4,30.11,SSE,157,1.0,3.0,86,0.00,,,-99.99,WeatherLink 5.7,2013-02-11 12:33:00,
2013-02-11 07:43:00,35.9,32.4,30.11,SSE,157,1.0,4.0,87,0.00,,,-99.99,WeatherLink 5.7,2013-02-11 12:43:00,
2013-02-11 07:53:00,35.7,32.8,30.11,SSE,157,1.0,3.0,89,0.00,,,-99.99,WeatherLink 5.7,2013-02-11 12:53:00,
2013-02-11 08:03:00,36.3,33.9,30.09,ESE,112,3.0,7.0,91,0.00,,,-99.99,WeatherLink 5.7,2013-02-11 13:03:00,
2013-02-11 08:13:00,36.7,34.6,30.08,ENE,67,2.0,6.0,92,0.00,,,-99.99,WeatherLink 5.7,2013-02-11 13:13:00,
2013-02-11 08:23:00,37.0,35.4,30.08,ENE,67,3.0,6.0,94,0.00,,,-99.99,WeatherLink 5.7,2013-02-11 13:23:00,
2013-02-11 08:33:00,37.2,35.6,30.08,ENE,67,2.0,5.0,94,0.00,,,-99.99,WeatherLink 5.7,2013-02-11 13:33:00,
2013-02-11 08:44:00,37.7,36.4,30.08,ENE,67,2.0,4.0,95,0.00,,,-99.99,WeatherLink 5.7,2013-02-11 13:44:00,
2013-02-11 08:53:00,38.0,36.7,30.07,ENE,67,2.0,4.0,95,0.00,,,-99.99,WeatherLink 5.7,2013-02-11 13:53:00,
2013-02-11 09:03:00,37.8,36.5,30.06,ENE,67,1.0,4.0,95,0.00,,,-99.99,WeatherLink 5.7,2013-02-11 14:03:00,
2013-02-11 09:13:00,37.6,36.3,30.06,ENE,67,2.0,4.0,95,0.00,,,-99.99,WeatherLink 5.7,2013-02-11 14:13:00,
2013-02-11 09:23:00,37.4,36.1,30.05,ENE,67,2.0,3.0,95,0.00,,,-99.99,WeatherLink 5.7,2013-02-11 14:23:00,
2013-02-11 09:33:00,37.5,36.5,30.04,ENE,67,2.0,5.0,96,0.00,,,-99.99,WeatherLink 5.7,2013-02-11 14:33:00,
2013-02-11 09:43:00,37.7,36.7,30.04,ENE,67,1.0,3.0,96,0.00,,,-99.99,WeatherLink 5.7,2013-02-11 14:43:00,
2013-02-11 09:53:00,37.8,36.8,30.04,ENE,67,2.0,4.0,96,0.00,,,-99.99,WeatherLink 5.7,2013-02-11 14:53:00,
2013-02-11 10:03:00,38.0,37.0,30.02,ENE,67,2.0,5.0,96,0.00,,,-99.99,WeatherLink 5.7,2013-02-11 15:03:00,
2013-02-11 10:13:00,38.2,37.4,30.02,ENE,67,2.0,4.0,97,0.00,,,-99.99,WeatherLink 5.7,2013-02-11 15:13:00,
2013-02-11 10:23:00,38.5,37.7,30.02,ENE,67,2.0,5.0,97,0.00,,,-99.99,WeatherLink 5.7,2013-02-11 15:23:00,
2013-02-11 10:33:00,38.5,37.7,30.01,NE,45,2.0,4.0,97,0.00,,,-99.99,WeatherLink 5.7,2013-02-11 15:33:00,
2013-02-11 10:43:00,38.8,38.3,30.01,NE,45,1.0,3.0,98,0.00,,,-99.99,WeatherLink 5.7,2013-02-11 15:43:00,
2013-02-11 10:53:00,39.3,38.8,30.01,NE,45,1.0,3.0,98,0.00,,,-99.99,WeatherLink 5.7,2013-02-11 15:53:00,
2013-02-11 11:03:00,39.8,39.0,30.01,NE,45,1.0,4.0,97,0.00,,,-99.99,WeatherLink 5.7,2013-02-11 16:03:00,
2013-02-11 11:13:00,39.2,38.4,30.00,NE,45,2.0,5.0,97,0.00,,,-99.99,WeatherLink 5.7,2013-02-11 16:13:00,
2013-02-11 11:23:00,39.1,37.8,29.99,NE,45,2.0,3.0,95,0.00,,,-99.99,WeatherLink 5.7,2013-02-11 16:23:00,
2013-02-11 11:33:00,38.3,37.0,29.98,NE,45,1.0,3.0,95,0.00,,,-99.99,WeatherLink 5.7,2013-02-11 16:33:00,
2013-02-11 11:43:00,38.7,37.7,29.98,NE,45,1.0,3.0,96,0.00,,,-99.99,WeatherLink 5.7,2013-02-11 16:43:00,
2013-02-11 11:53:00,39.9,38.9,29.97,NE,45,2.0,3.0,96,0.00,,,-99.99,WeatherLink 5.7,2013-02-11 16:53:00,
2013-02-11 12:03:00,39.8,38.2,29.96,NE,45,1.0,2.0,94,0.00,,,-99.99,WeatherLink 5.7,2013-02-11 17:03:00,
2013-02-11 12:13:00,39.3,37.7,29.95,NE,45,1.0,3.0,94,0.00,,,-99.99,WeatherLink 5.7,2013-02-11 17:13:00,
2013-02-11 12:24:00,39.7,38.1,29.94,NE,45,0.0,2.0,94,0.00,,,-99.99,WeatherLink 5.7,2013-02-11 17:24:00,
2013-02-11 12:33:00,39.8,38.2,29.93,NE,45,0.0,3.0,94,0.00,,,-99.99,WeatherLink 5.7,2013-02-11 17:33:00,
2013-02-11 12:43:00,39.7,38.4,29.92,NE,45,0.0,2.0,95,0.00,,,-99.99,WeatherLink 5.7,2013-02-11 17:43:00,
2013-02-11 12:53:00,41.6,40.5,29.90,NE,45,1.0,4.0,96,0.00,,,-99.99,WeatherLink 5.7,2013-02-11 17:53:00,
2013-02-11 13:03:00,43.1,40.9,29.89,ENE,67,1.0,4.0,92,0.00,,,-99.99,WeatherLink 5.7,2013-02-11 18:03:00,
2013-02-11 13:13:00,42.5,40.1,29.88,ENE,67,1.0,3.0,91,0.00,,,-99.99,WeatherLink 5.7,2013-02-11 18:13:00,
2013-02-11 13:24:00,43.1,40.7,29.88,ENE,67,1.0,4.0,91,0.00,,,-99.99,WeatherLink 5.7,2013-02-11 18:24:00,
2013-02-11 13:34:00,43.4,40.4,29.86,ENE,67,1.0,4.0,89,0.00,,,-99.99,WeatherLink 5.7,2013-02-11 18:34:00,
2013-02-11 13:43:00,43.6,40.6,29.86,ENE,67,1.0,4.0,89,0.00,,,-99.99,WeatherLink 5.7,2013-02-11 18:43:00,
2013-02-11 13:53:00,43.9,40.0,29.86,ENE,67,1.0,4.0,86,0.00,,,-99.99,WeatherLink 5.7,2013-02-11 18:53:00,
2013-02-11 14:03:00,43.9,39.4,29.86,ENE,67,2.0,4.0,84,0.00,,,-99.99,WeatherLink 5.7,2013-02-11 19:03:00,
2013-02-11 14:13:00,43.5,39.3,29.86,ENE,67,2.0,4.0,85,0.00,,,-99.99,WeatherLink 5.7,2013-02-11 19:13:00,
2013-02-11 14:23:00,43.5,39.3,29.85,ENE,67,1.0,3.0,85,0.00,,,-99.99,WeatherLink 5.7,2013-02-11 19:23:00,
2013-02-11 14:33:00,43.8,39.6,29.84,ENE,67,1.0,4.0,85,0.00,,,-99.99,WeatherLink 5.7,2013-02-11 19:33:00,
2013-02-11 14:44:00,44.7,40.5,29.84,ENE,67,1.0,4.0,85,0.00,,,-99.99,WeatherLink 5.7,2013-02-11 19:44:00,
2013-02-11 14:53:00,44.7,40.8,29.83,ENE,67,1.0,5.0,86,0.00,,,-99.99,WeatherLink 5.7,2013-02-11 19:53:00,
2013-02-11 15:03:00,45.9,40.7,29.82,East,90,1.0,4.0,82,0.00,,,-99.99,WeatherLink 5.7,2013-02-11 20:03:00,
2013-02-11 15:13:00,46.1,40.3,29.82,East,90,1.0,5.0,80,0.00,,,-99.99,WeatherLink 5.7,2013-02-11 20:13:00,
2013-02-11 15:23:00,45.9,40.1,29.82,East,90,1.0,4.0,80,0.00,,,-99.99,WeatherLink 5.7,2013-02-11 20:23:00,
2013-02-11 15:34:00,45.2,39.7,29.81,East,90,2.0,4.0,81,0.00,,,-99.99,WeatherLink 5.7,2013-02-11 20:34:00,
2013-02-11 15:43:00,44.8,39.6,29.80,East,90,1.0,5.0,82,0.00,,,-99.99,WeatherLink 5.7,2013-02-11 20:43:00,
2013-02-11 15:54:00,44.5,39.7,29.79,East,90,1.0,3.0,83,0.00,,,-99.99,WeatherLink 5.7,2013-02-11 20:54:00,
2013-02-11 16:03:00,44.4,39.9,29.79,East,90,1.0,4.0,84,0.00,,,-99.99,WeatherLink 5.7,2013-02-11 21:03:00,
2013-02-11 16:13:00,44.5,40.0,29.78,East,90,1.0,4.0,84,0.00,,,-99.99,WeatherLink 5.7,2013-02-11 21:13:00,
2013-02-11 16:23:00,44.7,40.2,29.78,East,90,2.0,5.0,84,0.00,,,-99.99,WeatherLink 5.7,2013-02-11 21:23:00,
2013-02-11 16:33:00,44.8,40.0,29.78,East,90,2.0,3.0,83,0.00,,,-99.99,WeatherLink 5.7,2013-02-11 21:33:00,
2013-02-11 16:43:00,44.6,39.8,29.77,East,90,1.0,3.0,83,0.00,,,-99.99,WeatherLink 5.7,2013-02-11 21:43:00,
2013-02-11 16:53:00,44.6,40.1,29.76,East,90,1.0,3.0,84,0.00,,,-99.99,WeatherLink 5.7,2013-02-11 21:53:00,
2013-02-11 17:03:00,44.4,39.9,29.76,East,90,1.0,4.0,84,0.00,,,-99.99,WeatherLink 5.7,2013-02-11 22:03:00,
2013-02-11 17:13:00,44.4,40.2,29.76,East,90,0.0,3.0,85,0.00,,,-99.99,WeatherLink 5.7,2013-02-11 22:13:00,
2013-02-11 17:23:00,44.1,39.9,29.76,East,90,0.0,2.0,85,0.00,,,-99.99,WeatherLink 5.7,2013-02-11 22:23:00,
2013-02-11 17:33:00,43.3,39.4,29.75,East,90,0.0,2.0,86,0.00,,,-99.99,WeatherLink 5.7,2013-02-11 22:33:00,
2013-02-11 17:43:00,43.2,39.3,29.75,East,90,0.0,1.0,86,0.00,,,-99.99,WeatherLink 5.7,2013-02-11 22:43:00,
2013-02-11 17:53:00,43.1,39.5,29.74,East,90,0.0,2.0,87,0.00,,,-99.99,WeatherLink 5.7,2013-02-11 22:53:00,
2013-02-11 18:03:00,43.0,39.4,29.74,North,-999,0.0,1.0,87,0.00,,,-99.99,WeatherLink 5.7,2013-02-11 23:03:00,
2013-02-11 18:13:00,42.7,39.7,29.74,East,90,0.0,2.0,89,0.00,,,-99.99,WeatherLink 5.7,2013-02-11 23:13:00,
2013-02-11 18:23:00,43.4,40.4,29.74,East,90,0.0,2.0,89,0.00,,,-99.99,WeatherLink 5.7,2013-02-11 23:23:00,
2013-02-11 18:34:00,43.3,40.0,29.74,East,90,0.0,2.0,88,0.00,,,-99.99,WeatherLink 5.7,2013-02-11 23:34:00,
2013-02-11 18:44:00,42.7,40.0,29.73,East,90,0.0,2.0,90,0.00,,,-99.99,WeatherLink 5.7,2013-02-11 23:44:00,
2013-02-11 18:53:00,43.1,40.4,29.72,East,90,0.0,2.0,90,0.00,,,-99.99,WeatherLink 5.7,2013-02-11 23:53:00,
2013-02-11 19:03:00,43.1,40.1,29.72,North,-999,0.0,0.0,89,0.00,,,-99.99,WeatherLink 5.7,2013-02-12 00:03:00,
2013-02-11 19:13:00,43.0,40.8,29.72,East,90,0.0,3.0,92,0.00,,,-99.99,WeatherLink 5.7,2013-02-12 00:13:00,
2013-02-11 19:23:00,43.8,41.1,29.72,East,90,0.0,2.0,90,0.00,,,-99.99,WeatherLink 5.7,2013-02-12 00:23:00,
2013-02-11 19:33:00,43.5,40.5,29.72,East,90,0.0,1.0,89,0.00,,,-99.99,WeatherLink 5.7,2013-02-12 00:33:00,
2013-02-11 19:43:00,42.8,40.1,29.72,East,90,0.0,2.0,90,0.00,,,-99.99,WeatherLink 5.7,2013-02-12 00:43:00,
2013-02-11 19:53:00,43.2,40.8,29.72,East,90,0.0,1.0,91,0.00,,,-99.99,WeatherLink 5.7,2013-02-12 00:53:00,
2013-02-11 20:03:00,43.6,41.1,29.71,East,90,0.0,1.0,91,0.00,,,-99.99,WeatherLink 5.7,2013-02-12 01:03:00,
2013-02-11 20:13:00,43.1,40.1,29.72,East,90,0.0,1.0,89,0.00,,,-99.99,WeatherLink 5.7,2013-02-12 01:13:00,
2013-02-11 20:23:00,42.1,39.4,29.72,East,90,1.0,3.0,90,0.00,,,-99.99,WeatherLink 5.7,2013-02-12 01:23:00,
2013-02-11 20:34:00,41.9,39.7,29.71,East,90,0.0,2.0,92,0.00,,,-99.99,WeatherLink 5.7,2013-02-12 01:34:00,
2013-02-11 20:43:00,42.0,39.8,29.72,East,90,1.0,3.0,92,0.00,,,-99.99,WeatherLink 5.7,2013-02-12 01:43:00,
2013-02-11 20:54:00,42.2,40.3,29.72,East,90,1.0,3.0,93,0.00,,,-99.99,WeatherLink 5.7,2013-02-12 01:54:00,
2013-02-11 21:03:00,42.0,40.1,29.72,East,90,1.0,3.0,93,0.00,,,-99.99,WeatherLink 5.7,2013-02-12 02:03:00,
2013-02-11 21:13:00,42.1,40.5,29.72,East,90,1.0,4.0,94,0.00,,,-99.99,WeatherLink 5.7,2013-02-12 02:13:00,
2013-02-11 21:24:00,42.4,41.1,29.71,East,90,1.0,2.0,95,0.00,,,-99.99,WeatherLink 5.7,2013-02-12 02:24:00,
2013-02-11 21:33:00,42.6,41.3,29.72,East,90,1.0,3.0,95,0.00,,,-99.99,WeatherLink 5.7,2013-02-12 02:33:00,
2013-02-11 21:44:00,42.1,40.8,29.74,NNW,337,5.0,10.0,95,0.00,,,-99.99,WeatherLink 5.7,2013-02-12 02:44:00,
2013-02-11 21:53:00,42.1,41.0,29.74,NW,315,4.0,9.0,96,0.00,,,-99.99,WeatherLink 5.7,2013-02-12 02:53:00,
2013-02-11 22:03:00,42.5,41.7,29.75,NW,315,4.0,8.0,97,0.00,,,-99.99,WeatherLink 5.7,2013-02-12 03:03:00,
2013-02-11 22:13:00,43.1,42.6,29.75,WNW,292,5.0,12.0,98,0.00,,,-99.99,WeatherLink 5.7,2013-02-12 03:13:00,
2013-02-11 22:23:00,43.9,43.1,29.75,West,270,5.0,9.0,97,0.00,,,-99.99,WeatherLink 5.7,2013-02-12 03:23:00,
2013-02-11 22:33:00,43.6,42.3,29.75,West,270,4.0,9.0,95,0.00,,,-99.99,WeatherLink 5.7,2013-02-12 03:33:00,
2013-02-11 22:43:00,43.3,42.0,29.76,WNW,292,5.0,9.0,95,0.00,,,-99.99,WeatherLink 5.7,2013-02-12 03:43:00,
2013-02-11 22:53:00,43.6,42.5,29.77,WNW,292,4.0,8.0,96,0.00,,,-99.99,WeatherLink 5.7,2013-02-12 03:53:00,
2013-02-11 23:03:00,43.9,42.6,29.77,WNW,292,5.0,10.0,95,0.00,,,-99.99,WeatherLink 5.7,2013-02-12 04:03:00,
2013-02-11 23:14:00,44.2,42.6,29.76,WNW,292,4.0,8.0,94,0.00,,,-99.99,WeatherLink 5.7,2013-02-12 04:14:00,
2013-02-11 23:23:00,44.3,42.4,29.77,WNW,292,3.0,7.0,93,0.00,,,-99.99,WeatherLink 5.7,2013-02-12 04:23:00,
2013-02-11 23:33:00,44.1,41.9,29.77,WNW,292,3.0,7.0,92,0.00,,,-99.99,WeatherLink 5.7,2013-02-12 04:33:00,
2013-02-11 23:43:00,44.0,42.1,29.77,WNW,292,3.0,7.0,93,0.00,,,-99.99,WeatherLink 5.7,2013-02-12 04:43:00,
2013-02-11 23:53:00,44.6,41.8,29.77,WNW,292,2.0,5.0,90,0.00,,,-99.99,WeatherLink 5.7,2013-02-12 04:53:00,